TimeCDT,TemperatureF,Dew PointF,Humidity,Sea Level PressureIn,VisibilityMPH,Wind Direction,Wind SpeedMPH,Gust SpeedMPH,PrecipitationIn,Events,Conditions,WindDirDegrees,DateUTC
12:15 AM,32.9,32.5,99,29.75,2.5,West,6.9,-,N/A,,Clear,270,2013-03-31 05:15:00
12:35 AM,32.0,32.0,100,29.74,2.5,West,5.8,-,N/A,,Clear,270,2013-03-31 05:35:00
12:55 AM,32.0,32.0,100,29.74,2.5,West,6.9,-,N/A,,Scattered Clouds,270,2013-03-31 05:55:00
1:15 AM,32.0,32.0,100,29.73,1.8,West,5.8,-,N/A,,Overcast,280,2013-03-31 06:15:00
1:35 AM,32.0,32.0,100,29.72,1.0,West,4.6,-,N/A,,Overcast,270,2013-03-31 06:35:00
1:55 AM,31.8,31.8,100,29.72,1.8,West,5.8,-,N/A,,Overcast,270,2013-03-31 06:55:00
2:15 AM,32.2,32.2,100,29.71,0.5,West,8.1,-,N/A,Fog,Fog,270,2013-03-31 07:15:00
2:35 AM,32.5,32.5,100,29.70,0.2,West,8.1,-,N/A,Fog,Fog,270,2013-03-31 07:35:00
2:55 AM,32.5,32.5,100,29.70,0.5,West,8.1,-,N/A,Fog,Fog,280,2013-03-31 07:55:00
3:15 AM,32.5,32.5,100,29.70,0.5,West,10.4,17.3,N/A,Fog,Fog,280,2013-03-31 08:15:00
3:35 AM,32.5,32.5,100,29.70,0.8,West,9.2,-,N/A,,Overcast,280,2013-03-31 08:35:00
3:55 AM,32.5,32.5,100,29.69,1.2,West,10.4,-,N/A,,Overcast,270,2013-03-31 08:55:00
4:15 AM,32.5,32.5,100,29.69,2.0,WNW,10.4,-,N/A,,Overcast,290,2013-03-31 09:15:00
4:35 AM,32.4,32.4,100,29.68,2.5,WNW,8.1,-,N/A,,Overcast,290,2013-03-31 09:35:00
4:55 AM,32.2,32.2,100,29.67,2.5,WNW,6.9,-,N/A,,Overcast,290,2013-03-31 09:55:00
5:15 AM,32.0,32.0,100,29.66,2.5,West,6.9,-,N/A,,Overcast,270,2013-03-31 10:15:00
5:35 AM,32.0,32.0,100,29.65,2.0,West,8.1,-,N/A,,Overcast,270,2013-03-31 10:35:00
5:55 AM,32.0,32.0,100,29.65,2.0,West,9.2,-,N/A,,Overcast,280,2013-03-31 10:55:00
6:15 AM,32.0,32.0,100,29.66,2.0,West,10.4,-,N/A,,Overcast,270,2013-03-31 11:15:00
6:35 AM,32.0,32.0,100,29.65,3.0,West,9.2,-,N/A,,Overcast,270,2013-03-31 11:35:00
6:55 AM,32.0,32.0,100,29.66,2.5,West,10.4,-,N/A,,Overcast,270,2013-03-31 11:55:00
7:15 AM,32.0,31.6,99,29.67,4.0,West,9.2,18.4,N/A,,Overcast,280,2013-03-31 12:15:00
7:35 AM,32.0,31.5,98,29.66,4.0,West,9.2,-,N/A,,Overcast,280,2013-03-31 12:35:00
7:55 AM,32.0,31.1,96,29.65,5.0,West,6.9,-,N/A,,Overcast,270,2013-03-31 12:55:00
8:15 AM,32.0,31.3,97,29.64,5.0,West,5.8,-,N/A,,Overcast,270,2013-03-31 13:15:00
8:35 AM,32.4,31.5,96,29.64,5.0,West,6.9,-,N/A,,Overcast,270,2013-03-31 13:35:00
8:55 AM,33.1,31.5,94,29.64,7.0,West,6.9,-,N/A,,Overcast,270,2013-03-31 13:55:00
9:15 AM,34.0,31.1,89,29.63,10.0,West,8.1,-,N/A,,Scattered Clouds,270,2013-03-31 14:15:00
9:35 AM,35.1,31.1,85,29.63,10.0,West,8.1,-,N/A,,Clear,260,2013-03-31 14:35:00
9:55 AM,34.7,31.1,87,29.62,10.0,West,10.4,-,N/A,,Mostly Cloudy,260,2013-03-31 14:55:00
10:15 AM,35.4,30.7,83,29.62,10.0,West,9.2,-,N/A,,Overcast,270,2013-03-31 15:15:00
10:35 AM,36.0,30.6,81,29.62,10.0,WNW,13.8,-,N/A,,Overcast,290,2013-03-31 15:35:00
10:55 AM,36.3,29.5,76,29.62,10.0,WNW,15.0,24.2,N/A,,Mostly Cloudy,300,2013-03-31 15:55:00
11:15 AM,37.4,29.1,72,29.62,10.0,WNW,16.1,19.6,N/A,,Mostly Cloudy,290,2013-03-31 16:15:00
11:35 AM,36.9,28.0,70,29.62,10.0,West,16.1,21.9,N/A,,Overcast,280,2013-03-31 16:35:00
11:55 AM,33.8,30.0,86,29.63,1.8,WNW,18.4,24.2,N/A,Snow,Light Snow,300,2013-03-31 16:55:00
12:15 PM,33.6,30.0,87,29.63,2.0,WNW,17.3,24.2,N/A,Snow,Light Snow,290,2013-03-31 17:15:00
12:35 PM,34.0,29.8,85,29.63,5.0,WNW,15.0,23.0,N/A,Snow,Light Snow,290,2013-03-31 17:35:00
12:55 PM,33.8,29.5,84,29.63,5.0,WNW,17.3,23.0,N/A,Snow,Light Snow,300,2013-03-31 17:55:00
1:15 PM,33.6,29.8,86,29.63,3.0,West,16.1,24.2,N/A,Snow,Light Snow,280,2013-03-31 18:15:00
1:35 PM,33.8,28.8,82,29.64,5.0,WNW,12.7,23.0,N/A,Snow,Light Snow,290,2013-03-31 18:35:00
1:55 PM,34.7,28.9,79,29.64,10.0,West,16.1,21.9,N/A,,Mostly Cloudy,280,2013-03-31 18:55:00
2:15 PM,35.2,27.3,73,29.63,10.0,West,13.8,-,N/A,,Mostly Cloudy,260,2013-03-31 19:15:00
2:35 PM,31.3,30.0,95,29.65,0.5,NNW,10.4,26.5,N/A,Snow,Snow,340,2013-03-31 19:35:00
2:55 PM,33.3,28.6,83,29.65,10.0,NW,12.7,17.3,N/A,,Scattered Clouds,310,2013-03-31 19:55:00
3:15 PM,33.8,26.2,74,29.65,10.0,NW,13.8,25.3,N/A,,Scattered Clouds,310,2013-03-31 20:15:00
3:35 PM,32.2,23.9,72,29.65,10.0,NW,15.0,31.1,N/A,,Mostly Cloudy,320,2013-03-31 20:35:00
3:55 PM,34.9,22.5,61,29.66,10.0,NNW,17.3,23.0,N/A,,Mostly Cloudy,330,2013-03-31 20:55:00
4:15 PM,32.9,21.6,63,29.67,10.0,NNW,19.6,25.3,N/A,,Overcast,330,2013-03-31 21:15:00
4:35 PM,33.8,17.8,52,29.68,10.0,NNW,16.1,25.3,N/A,,Mostly Cloudy,330,2013-03-31 21:35:00
4:55 PM,33.1,18.7,56,29.68,10.0,NNW,17.3,27.6,N/A,,Mostly Cloudy,340,2013-03-31 21:55:00
5:15 PM,32.5,18.3,56,29.70,10.0,NW,17.3,25.3,N/A,,Overcast,320,2013-03-31 22:15:00
5:35 PM,31.1,18.7,60,29.71,10.0,NNW,20.7,32.2,N/A,,Overcast,330,2013-03-31 22:35:00
5:55 PM,31.6,16.0,52,29.72,10.0,NW,17.3,23.0,N/A,,Mostly Cloudy,310,2013-03-31 22:55:00
6:15 PM,29.7,17.6,61,29.73,10.0,NW,15.0,18.4,N/A,,Mostly Cloudy,310,2013-03-31 23:15:00
6:35 PM,30.2,18.1,61,29.74,10.0,NW,11.5,19.6,N/A,,Overcast,320,2013-03-31 23:35:00
6:55 PM,30.0,15.8,56,29.75,10.0,NNW,23.0,32.2,N/A,,Overcast,340,2013-03-31 23:55:00
7:15 PM,28.8,15.3,57,29.76,10.0,NNW,13.8,18.4,N/A,,Mostly Cloudy,330,2013-04-01 00:15:00
7:35 PM,28.0,15.4,59,29.78,10.0,NNW,15.0,20.7,N/A,,Mostly Cloudy,340,2013-04-01 00:35:00
7:55 PM,27.0,16.3,64,29.79,10.0,NNW,13.8,-,N/A,,Overcast,330,2013-04-01 00:55:00
8:15 PM,26.4,16.3,66,29.80,10.0,NNW,8.1,-,N/A,,Scattered Clouds,330,2013-04-01 01:15:00
8:35 PM,27.0,15.4,62,29.81,10.0,NNW,11.5,-,N/A,,Mostly Cloudy,340,2013-04-01 01:35:00
8:55 PM,26.6,14.9,61,29.81,10.0,NW,13.8,19.6,N/A,,Mostly Cloudy,320,2013-04-01 01:55:00
9:15 PM,25.7,14.5,63,29.82,10.0,NW,12.7,-,N/A,,Clear,320,2013-04-01 02:15:00
9:35 PM,25.3,13.5,61,29.83,10.0,NNW,17.3,23.0,N/A,,Clear,330,2013-04-01 02:35:00
9:55 PM,24.8,14.0,64,29.84,10.0,NNW,16.1,20.7,N/A,,Scattered Clouds,340,2013-04-01 02:55:00
10:15 PM,24.4,14.9,67,29.85,10.0,North,18.4,21.9,N/A,,Mostly Cloudy,350,2013-04-01 03:15:00
10:35 PM,23.9,14.0,66,29.85,10.0,NNW,18.4,26.5,N/A,,Mostly Cloudy,340,2013-04-01 03:35:00
10:55 PM,23.2,14.9,71,29.86,10.0,NNW,13.8,-,N/A,,Mostly Cloudy,340,2013-04-01 03:55:00
11:15 PM,22.6,14.7,72,29.86,10.0,NNW,12.7,19.6,N/A,,Scattered Clouds,330,2013-04-01 04:15:00
11:55 PM,21.7,13.1,69,29.87,10.0,NW,11.5,18.4,N/A,,Scattered Clouds,320,2013-04-01 04:55:00